Location: ??????
(41.3164°N, 22.6615°E)
Time: 13:32:01
(UTC+00:00)

H-2A R/B - Pass Details

Date: 29 May 2022
Orbit: 576 x 653 km, 98.5° (Epoch: 30 June)

Event Time Altitude Azimuth Distance (km) Brightness Sun altitude
Rises 19:52:18 0° 354° (N) 2,798 6.4 -17.5°
Reaches altitude 10° 19:55:15 10° 331° (NNW) 1,897 5.8 -17.8°
Maximum altitude 19:57:32 15° 296° (WNW) 1,608 5.0 -18.1°
Drops below altitude 10° 19:59:51 10° 262° (W) 1,901 4.9 -18.4°
Sets 20:02:48 0° 239° (WSW) 2,807 5.5 -18.7°
